Wind_Speed
11 11 12 12 11 11 11 12 12 12 11 11 11 11 12 12 13 13 13 14 14 14 14 14 14 15 15 16 16 16 17 18 18 20 22 23 23 24 24 24 25 25 26
12 12 13 13 13 13 14 14 14 13 12 12 12 13 13 13 13 13 13 13 14 14 14 14 15 16 16 17 17 18 19 19 20 21 22 23 23 24 25 25 26 26 27
13 13 14 14 15 15 16 15 15 15 14 14 14 14 14 14 14 13 14 15 14 14 15 15 16 17 18 19 19 20 21 21 21 22 22 23 24 24 24 25 26 27 28
14 14 15 15 16 17 17 16 16 16 16 16 16 15 15 15 15 14 15 15 15 15 16 17 17 18 19 20 21 22 23 23 23 24 24 24 25 26 26 27 28 28 29
14 15 16 17 17 17 17 17 18 18 18 17 17 17 16 16 16 16 16 16 16 17 18 18 19 19 20 21 23 24 25 25 25 26 26 26 27 27 27 29 29 29 30
15 16 17 17 17 17 17 17 18 18 18 18 18 17 16 16 16 16 16 17 17 18 19 19 20 20 21 22 23 24 25 25 25 26 27 28 28 29 30 30 31 31 31
15 16 16 16 16 16 16 16 17 17 16 16 17 17 16 16 16 16 17 17 18 19 20 21 21 21 22 23 23 24 25 25 26 27 28 29 29 30 30 31 31 31 31
15 16 16 16 16 16 16 16 16 17 16 16 16 16 16 16 16 16 17 18 19 20 21 21 22 23 24 24 25 25 26 26 27 28 28 29 29 29 30 30 31 31 30
15 16 16 17 16 16 16 15 15 15 15 15 15 15 16 16 16 16 17 18 19 20 20 21 22 23 24 24 25 26 27 27 28 29 29 29 29 30 30 30 30 30 31
17 17 17 16 16 16 15 14 14 15 15 14 15 15 15 15 15 16 17 18 18 19 20 21 22 23 24 24 25 26 27 27 28 28 28 29 29 30 30 30 31 31 33
17 17 17 16 16 15 14 13 14 14 14 14 13 13 14 15 16 16 17 18 19 20 21 21 22 23 24 25 26 26 27 27 27 28 29 30 30 30 31 31 32 33 34
17 17 17 16 15 14 13 14 14 14 14 14 14 14 15 16 16 17 18 19 19 20 21 23 24 24 25 26 26 26 26 27 28 29 29 30 30 31 31 31 32 33 34
17 17 17 15 14 14 14 14 15 15 15 15 15 15 16 17 17 17 18 18 18 20 22 23 24 25 26 26 26 27 27 28 29 29 30 30 31 31 32 33 34 34 33
16 16 16 15 15 14 14 15 15 15 15 15 15 16 16 17 17 18 18 19 20 21 23 24 25 25 26 26 27 28 28 28 29 30 30 31 31 32 32 33 33 33 33
16 16 16 16 16 16 16 16 16 16 16 16 16 17 17 18 18 19 20 20 21 23 24 25 25 26 27 28 28 28 29 30 30 31 31 32 33 33 33 33 33 32 32
17 16 16 16 16 16 16 16 16 16 17 17 17 18 18 19 19 20 21 22 23 24 25 25 26 27 27 28 29 29 30 30 31 32 33 33 33 32 32 32 32 32 32
17 17 17 16 16 17 17 17 17 18 18 19 19 19 19 20 20 21 22 23 24 24 25 26 27 28 28 28 29 30 31 32 32 33 33 33 32 32 32 32 32 32 32
18 17 17 17 17 18 18 18 19 19 20 20 20 21 21 21 21 22 23 24 24 25 26 27 28 28 29 29 30 31 32 32 33 33 32 32 32 32 32 32 32 32 32
19 18 18 18 18 19 19 20 20 21 21 21 21 21 22 22 23 23 24 25 25 26 27 28 28 29 30 30 31 31 32 32 32 32 32 32 32 32 32 32 32 32 32
20 20 19 19 19 20 21 21 21 22 22 21 21 22 22 23 24 25 25 26 27 27 28 28 29 30 31 31 32 32 32 32 32 32 32 32 32 32 31 31 31 31 31
21 21 21 21 22 22 23 23 22 22 22 22 22 23 23 24 25 26 27 27 28 28 29 29 30 31 32 32 32 32 32 32 32 32 32 32 31 31 31 31 31 31 31
22 22 23 23 23 24 24 23 23 23 23 24 24 24 25 26 26 27 28 28 28 29 30 30 31 33 33 32 32 31 32 32 32 32 32 31 31 30 30 31 31 31 31
23 23 24 24 23 23 23 23 23 23 24 24 25 26 26 27 28 28 28 29 29 30 31 32 33 33 33 32 32 32 32 32 32 32 32 31 31 31 31 31 31 31 31
23 23 23 23 22 23 23 23 24 25 25 25 26 26 27 28 28 28 29 30 30 31 32 33 33 33 32 32 32 32 32 32 32 32 32 32 32 32 32 31 31 31 31
22 23 23 23 23 24 24 24 25 25 26 26 27 27 27 28 29 30 31 31 31 31 32 32 32 32 32 32 33 33 33 33 33 33 33 33 33 32 32 31 31 30 30
22 23 23 23 23 24 24 25 25 26 27 27 27 27 28 29 30 30 31 31 31 32 32 32 32 33 33 33 33 34 34 34 33 33 33 33 32 32 31 31 31 31 30
Wind_Direction
299 302 303 300 298 299 301 302 303 306 309 306 304 301 297 293 290 285 285 286 286 283 285 287 287 287 289 291 292 294 295 293 291 290 289 292 292 293 292 292 292 292 290
292 295 298 295 294 296 296 298 299 301 302 302 302 301 300 297 291 288 289 289 289 286 284 286 289 290 289 290 293 295 296 295 293 293 293 294 294 295 294 293 293 292 291
290 291 295 296 294 293 292 295 295 296 296 296 297 298 298 298 294 289 289 289 290 291 290 289 290 290 289 290 292 294 295 296 296 295 296 296 296 296 296 295 294 292 290
288 290 293 293 292 292 290 290 291 292 291 289 291 294 295 293 290 288 289 289 290 293 293 293 293 294 293 292 293 294 295 295 295 296 295 295 296 295 295 295 295 293 292
292 293 293 294 294 290 289 288 288 288 288 287 289 292 290 287 285 284 286 288 288 290 292 294 296 296 295 293 293 294 294 295 296 296 295 294 295 296 295 295 295 295 295
293 295 295 293 292 291 290 289 288 288 288 288 288 288 288 287 287 284 284 285 288 291 294 296 296 296 296 295 295 295 295 297 298 296 295 294 296 297 295 294 295 296 296
292 296 293 292 292 294 291 291 291 289 289 289 289 287 287 290 289 284 284 286 287 289 292 294 295 294 296 296 296 297 297 296 296 296 297 297 298 299 298 297 295 296 297
292 295 293 292 292 292 291 294 293 289 287 288 290 290 288 288 288 285 285 288 287 289 291 293 294 294 296 297 298 297 297 296 296 296 298 298 299 300 300 299 297 297 297
291 294 296 294 293 294 294 292 293 294 290 287 287 290 291 288 289 287 285 289 291 293 294 295 296 297 298 298 298 297 297 297 298 298 299 299 299 300 300 299 299 299 300
290 291 293 295 297 296 297 295 295 295 292 289 289 289 292 292 290 291 290 292 294 296 299 300 300 300 300 300 299 300 299 300 301 301 301 301 300 300 300 300 300 300 300
290 290 291 296 300 298 297 298 296 295 295 294 294 294 295 296 297 300 300 300 300 300 302 304 303 303 302 302 303 303 303 303 304 304 304 303 302 302 302 301 301 301 302
291 290 291 293 294 295 295 296 296 295 294 294 294 296 299 301 302 302 304 304 303 304 305 307 306 305 305 306 307 307 306 305 305 305 306 306 305 304 304 303 302 302 303
292 291 293 291 289 290 292 294 295 297 295 293 293 294 297 300 301 302 305 306 307 309 310 310 310 309 309 309 309 309 308 307 307 307 308 308 307 307 307 306 306 306 305
290 289 290 288 287 289 292 293 295 296 296 297 297 296 298 300 302 303 305 307 309 310 311 311 310 310 311 311 310 310 309 309 309 309 309 309 308 308 308 308 309 308 307
286 286 287 286 286 287 289 291 293 294 298 298 298 298 300 300 301 302 305 306 308 310 311 311 311 311 312 312 312 311 311 311 310 309 309 310 310 310 310 310 310 309 308
284 286 286 287 288 287 289 290 293 295 296 297 297 299 301 301 301 302 304 306 308 310 311 311 311 312 313 313 313 312 311 312 312 311 311 311 311 311 311 312 311 311 310
281 283 285 287 287 288 290 290 293 294 295 295 296 298 299 300 302 304 305 307 308 310 310 312 313 313 313 313 313 313 313 313 312 312 312 312 312 311 311 312 312 312 312
279 281 283 283 285 286 288 290 293 295 296 297 297 298 299 300 302 303 305 307 309 309 310 311 313 313 314 314 314 314 314 314 313 313 313 313 314 313 313 313 313 313 312
276 279 280 281 284 285 287 289 291 294 296 296 297 297 299 300 302 304 305 307 308 309 310 311 313 313 314 314 314 314 314 315 315 315 314 314 314 314 313 313 313 313 313
273 276 277 279 282 285 287 289 291 293 295 296 296 298 300 301 302 304 305 306 307 308 309 311 313 313 313 313 314 315 315 315 315 316 315 314 314 314 314 313 313 313 313
272 273 276 279 282 285 287 288 289 290 292 295 296 298 300 301 302 303 304 305 306 308 310 311 312 313 314 313 314 314 315 315 315 315 315 315 315 315 315 314 314 314 314
270 273 276 279 281 283 285 286 288 290 291 293 296 297 298 299 301 302 302 304 306 307 309 310 312 313 314 314 313 314 314 315 316 316 316 316 316 316 316 315 315 314 314
273 275 278 280 281 283 285 285 287 289 291 294 295 295 296 298 299 301 302 304 306 307 308 310 311 312 312 312 313 313 313 315 316 316 317 317 317 316 316 316 316 315 315
271 275 277 277 280 283 284 284 287 289 291 292 294 295 296 298 299 301 302 303 305 306 307 309 310 310 310 311 312 313 313 315 316 316 317 317 316 316 315 316 316 317 316
269 272 273 274 278 281 283 285 288 289 291 292 294 295 296 298 300 301 302 303 305 306 307 308 309 309 309 310 311 312 313 314 314 315 315 316 316 315 315 315 316 317 317
267 269 271 274 278 281 284 286 288 290 291 292 293 295 296 298 300 301 301 303 304 306 307 308 308 308 309 310 310 311 312 313 313 313 314 315 315 315 315 315 316 316 315
Height
5902 5901 5900 5899 5898 5897 5896 5895 5894 5892 5891 5889 5888 5887 5886 5885 5885 5884 5883 5882 5881 5880 5880 5879 5878 5877 5876 5875 5874 5872 5871 5869 5868 5866 5864 5862 5860 5858 5856 5854 5852 5850 5848
5899 5898 5897 5896 5895 5894 5894 5892 5891 5890 5888 5887 5886 5885 5884 5883 5882 5881 5880 5879 5878 5877 5876 5875 5874 5873 5872 5871 5870 5868 5866 5865 5863 5861 5859 5857 5854 5852 5850 5848 5846 5843 5841
5896 5896 5895 5893 5892 5891 5891 5889 5888 5887 5886 5885 5883 5882 5881 5880 5879 5877 5876 5876 5875 5874 5873 5872 5870 5869 5868 5867 5865 5863 5861 5859 5858 5856 5854 5851 5849 5846 5844 5842 5839 5837 5834
5893 5892 5892 5890 5889 5888 5887 5886 5885 5884 5882 5881 5880 5878 5877 5876 5875 5874 5873 5872 5871 5870 5869 5868 5866 5865 5863 5862 5860 5858 5856 5854 5852 5850 5848 5845 5843 5840 5838 5835 5832 5830 5827
5890 5889 5888 5887 5885 5883 5883 5882 5881 5879 5878 5877 5875 5874 5874 5873 5871 5870 5870 5869 5868 5866 5865 5863 5862 5860 5858 5857 5855 5852 5850 5848 5846 5844 5841 5839 5836 5833 5831 5828 5825 5822 5819
5886 5885 5883 5882 5880 5879 5877 5877 5876 5875 5873 5872 5871 5870 5869 5869 5867 5866 5866 5865 5863 5862 5861 5859 5857 5855 5853 5851 5849 5847 5845 5842 5840 5837 5834 5832 5829 5826 5823 5820 5817 5815 5812
5882 5881 5879 5877 5876 5875 5874 5873 5871 5870 5869 5868 5867 5866 5865 5864 5863 5862 5861 5860 5859 5857 5856 5854 5852 5850 5848 5846 5844 5841 5839 5836 5834 5831 5828 5825 5822 5819 5816 5813 5810 5807 5804
5878 5877 5875 5873 5872 5871 5870 5869 5867 5866 5865 5864 5863 5862 5861 5860 5858 5857 5856 5855 5854 5852 5850 5849 5847 5845 5842 5840 5838 5835 5832 5829 5827 5824 5822 5818 5815 5811 5808 5805 5802 5799 5796
5875 5874 5872 5870 5868 5867 5866 5865 5864 5862 5861 5860 5859 5858 5857 5856 5854 5853 5852 5851 5849 5847 5845 5844 5841 5839 5837 5834 5831 5829 5826 5823 5820 5817 5814 5811 5807 5804 5801 5798 5794 5791 5788
5871 5870 5869 5867 5866 5864 5863 5861 5860 5859 5857 5856 5855 5854 5853 5852 5850 5849 5848 5846 5845 5843 5841 5838 5835 5833 5831 5828 5825 5822 5819 5816 5813 5810 5807 5803 5800 5797 5793 5790 5787 5783 5779
5867 5866 5865 5864 5862 5860 5859 5858 5857 5856 5855 5853 5852 5851 5850 5848 5847 5845 5843 5842 5840 5838 5836 5833 5830 5827 5824 5821 5818 5816 5813 5809 5806 5803 5800 5796 5793 5789 5786 5782 5778 5775 5771
5863 5862 5861 5860 5859 5857 5856 5855 5854 5853 5851 5850 5849 5848 5846 5845 5843 5841 5840 5838 5835 5833 5831 5828 5825 5822 5819 5816 5813 5810 5806 5803 5800 5797 5793 5789 5785 5781 5777 5774 5770 5766 5762
5859 5858 5857 5856 5855 5854 5853 5852 5851 5849 5848 5846 5845 5844 5843 5841 5839 5837 5835 5833 5831 5828 5826 5823 5820 5817 5814 5810 5807 5804 5800 5797 5793 5790 5786 5782 5778 5774 5769 5765 5761 5757 5753
5855 5854 5853 5852 5851 5850 5849 5848 5847 5846 5844 5843 5841 5840 5838 5837 5835 5833 5831 5829 5826 5824 5821 5818 5815 5811 5808 5805 5801 5798 5794 5790 5786 5783 5779 5775 5770 5766 5762 5758 5753 5749 5745
5851 5850 5849 5848 5847 5846 5845 5844 5843 5842 5840 5839 5837 5836 5834 5832 5830 5828 5826 5824 5821 5818 5815 5812 5809 5806 5802 5799 5795 5791 5787 5784 5779 5776 5771 5767 5763 5759 5754 5750 5746 5741 5737
5847 5846 5845 5844 5843 5842 5841 5840 5839 5838 5836 5835 5833 5831 5829 5828 5825 5823 5821 5819 5816 5813 5810 5806 5803 5800 5796 5792 5789 5785 5781 5777 5773 5769 5764 5760 5755 5751 5747 5742 5738 5734 5729
5842 5841 5840 5840 5839 5838 5837 5836 5835 5833 5832 5830 5828 5826 5825 5823 5820 5818 5815 5813 5810 5807 5804 5801 5797 5793 5790 5786 5782 5778 5774 5770 5766 5761 5757 5752 5748 5744 5739 5735 5730 5726 5722
5837 5837 5836 5835 5834 5833 5832 5831 5830 5828 5827 5825 5823 5821 5819 5817 5815 5812 5810 5807 5804 5801 5798 5795 5791 5787 5784 5780 5776 5771 5767 5763 5758 5754 5749 5745 5740 5736 5732 5727 5723 5719 5714
5832 5832 5831 5830 5829 5828 5827 5826 5824 5823 5821 5819 5817 5815 5813 5811 5809 5807 5804 5801 5798 5795 5792 5788 5785 5781 5777 5773 5769 5764 5760 5756 5751 5746 5742 5737 5733 5728 5724 5720 5716 5711 5707
5827 5826 5826 5825 5824 5823 5822 5821 5819 5817 5816 5814 5812 5810 5808 5805 5803 5800 5798 5795 5792 5789 5785 5782 5778 5774 5770 5766 5762 5757 5753 5748 5744 5739 5735 5730 5726 5721 5717 5713 5709 5704 5700
5821 5820 5820 5819 5818 5817 5816 5815 5813 5811 5810 5808 5806 5803 5801 5799 5797 5794 5791 5788 5785 5782 5778 5775 5771 5767 5763 5759 5754 5750 5746 5741 5737 5732 5727 5723 5718 5714 5710 5705 5701 5697 5693
5814 5814 5814 5813 5811 5810 5809 5808 5807 5805 5803 5801 5799 5797 5795 5793 5790 5787 5784 5781 5778 5775 5771 5768 5764 5760 5756 5752 5747 5743 5739 5734 5730 5725 5720 5716 5711 5707 5703 5698 5694 5690 5685
5808 5807 5807 5805 5804 5803 5802 5801 5800 5798 5797 5795 5793 5790 5788 5786 5783 5780 5777 5774 5771 5767 5764 5760 5756 5752 5748 5744 5740 5736 5731 5727 5722 5718 5713 5709 5704 5700 5696 5691 5687 5682 5678
5801 5800 5800 5799 5798 5797 5796 5795 5793 5791 5790 5788 5785 5783 5781 5779 5776 5773 5770 5767 5763 5760 5756 5752 5749 5745 5740 5736 5732 5728 5724 5719 5715 5710 5706 5702 5697 5693 5688 5684 5679 5675 5671
5794 5794 5793 5792 5791 5790 5789 5787 5786 5784 5782 5780 5778 5776 5773 5771 5768 5765 5762 5759 5756 5752 5748 5744 5740 5736 5733 5729 5724 5720 5716 5712 5707 5703 5698 5694 5690 5685 5681 5676 5672 5668 5664
5787 5787 5786 5785 5784 5783 5782 5780 5778 5777 5775 5773 5770 5768 5766 5763 5760 5757 5754 5751 5748 5744 5740 5736 5732 5728 5724 5720 5716 5712 5708 5704 5699 5695 5691 5686 5682 5677 5673 5669 5665 5661 5656